User: anonymous   Login
Location: Conflandey
(47.7287°N, 6.0456°E)
Time: 08:37:01
(UTC+00:00)
Language:

H-2A R/B - Orbit

View from above orbital plane
View from above orbital plane
View from above satellite
View from above satellite

Ground track
Ground track

The orbit data is extracted from the following two-line orbital elements,

1 28932U 06002B   22024.86496352  .00000790  00000-0  77146-4 0  9990
2 28932  98.3110  59.4295 0087214 201.9108 210.7388 14.92910891868617
Epoch (UTC): 24 January 2022 20:45:32
Eccentricity: 0.0087214
inclination: 98.3110°
perigee height: 528 km
apogee height: 649 km
right ascension of ascending node: 59.4295°
argument of perigee: 201.9108°
revolutions per day: 14.92910891
mean anomaly at epoch: 210.7388°
orbit number at epoch: 86861

The dashed part of the orbit path shows where the satellite is in the earth's shadow,  

DLR